Location: Newark
(54.9353°N, 24.1167°E)
Time: 08:26:43
(UTC+00:00)

Envisat - Pass Details

Date: 03 October 2020
Orbit: 764 x 766 km, 98.1° (Epoch: 23 October)

Event Time Altitude Azimuth Distance (km) Brightness Sun altitude
Rises 16:29:47 0° 199° (SSW) 3,224 6.5 -6.0°
Reaches altitude 10° 16:32:27 10° 212° (SSW) 2,302 5.9 -6.4°
Maximum altitude 16:36:40 26° 269° (W) 1,479 5.6 -7.0°
Drops below altitude 10° 16:40:55 10° 325° (NW) 2,316 6.1 -7.6°
Sets 16:43:37 0° 339° (NNW) 3,247 6.6 -8.0°
